THORAD DELTA 1 DEB, 42597

Orbit data source: Space-Track

THORAD DELTA 1 DEB, 42597 is space debris in SSO originally from a launch on Fri, 15 Nov 1974 UTC launched from the Air Force Western Test Range (AFWTR). Debris objects in space refer to the collection of defunct objects orbiting the Earth. Examples of debris include non-operational satellites, rocket bodies, and fragments generated from explosions, collisions, or faulty payload assembly.

Loading next visibility...
Identifier
42597, 1974-089FN
Orbit
SSO
Country
Flag of USUS
Related business
Manufacturer
Unknown
Mission
Spacecraft
Bus & Motor
Unknown
Mass
Unknown
Launch date (UTC)
1974-11-15 (52 years ago)
Launch vehicle
Unknown
Launch site
Air Force Western Test Range (AFWTR)
Object type
Payload
Rocket body
Debris
Shape & HBR
Unknown shape, 0.1 m
Radar Cross Section
Medium (>0.1 m² and <1 m²)

Expand to show TLE details & history
Last TLE update: 5 days ago

TLE from 5 days ago
0 THORAD DELTA 1 DEB
1 42597U 74089FN  26167.66636744  .00000129  00000-0  81379-3 0  9992
2 42597 101.5481 156.1711 0195656  53.9288 307.9743 12.69679821582322
Epoch: 2026-06-16T15:59Z
TLE epoch observation values (Epoch: 2026-06-16T15:59:34.146Z)
Latitude
-0.00009°
Longitude
11.34372°
Altitude
1,294.279 km
Speed
7.252 km/s
True Right ascension
10h 24m 41s
True Declination
0° 00' 00"
Sunlit
Object was in daylight at epoch
Visualization orbit readout
Latitude
Unknown
Longitude
Unknown
Altitude
Unknown
Speed
Unknown
Apparent Right ascension
Unknown
Apparent Declination
Unknown
Sunlit
N/A
Visualization observer readout
Local Sidereal Time
08:42:23
Azimuth
Unknown
Elevation
Unknown
Doppler factor
Unknown
Orbital elements
Apogee altitude
1,532.56 km
Perigee altitude
1,228.945 km
Semi-major axis
7,758.889 km
Eccentricity
0.01957
Inclination
101.5481°
RAAN
156.1711°
Arg. of periapsis
53.9288°
True anomaly
306.18023°
Mean anomaly
307.9743°
Eccentric anomaly
307.07995°
Mean motion
3.17573 °/min
Orbital period
113.36 mins
BSTAR
0.00081379

Documentation

Showing up to 5 results
|